Printer-friendly version

IAU Minor Planet Center

Minor Planet Center

MPEC 2000-C11: 2000 BF19

The following Minor Planet Electronic Circular may be linked-to from your own Web pages, but must not otherwise be redistributed electronically.


Read MPEC 2000-C10 Read MPEC 2000-C12


M.P.E.C. 2000-C11                                Issued 2000 Feb. 3, 17:19 UT

     The Minor Planet Electronic Circulars contain information on unusual
         minor planets and routine data on comets.  They are published
   on behalf of Commission 20 of the International Astronomical Union by the
          Minor Planet Center, Smithsonian Astrophysical Observatory,
                          Cambridge, MA 02138, U.S.A.

             Prepared using the Tamkin Foundation Computer Network

             BMARSDEN@CFA.HARVARD.EDU or GWILLIAMS@CFA.HARVARD.EDU
          URL http://cfa-www.harvard.edu/iau/mpc.html  ISSN 1523-6714

                                   2000 BF19

Observations:
     K00B19F* C2000 01 28.30549 08 38 34.61 +20 04 20.8          20.6 V      691
     K00B19F  C2000 01 28.32778 08 38 31.92 +20 04 25.3          20.6 V      691
     K00B19F  C2000 01 28.35006 08 38 29.19 +20 04 29.2          20.6 V      691
     K00B19F  C2000 01 29.34649 08 36 30.34 +20 07 22.8          20.7 V      691
     K00B19F  C2000 01 29.35423 08 36 29.41 +20 07 24.5          20.9 V      691
     K00B19F  C2000 01 29.36575 08 36 27.99 +20 07 26.1                      691
     K00B19F  C2000 01 30.29283 08 34 37.11 +20 10 03.4          20.8 V      691
     K00B19F  C2000 01 30.30039 08 34 36.17 +20 10 04.6          20.8 V      691
     K00B19F  C2000 01 30.30816 08 34 35.18 +20 10 05.9          20.8 V      691
     K00B19F  C2000 01 30.32676 08 34 32.84 +20 10 09.1          20.4 R      858
     K00B19F  C2000 01 30.33880 08 34 31.30 +20 10 10.5          20.8 R      858
     K00B19F  C2000 01 30.35105 08 34 29.88 +20 10 12.8          20.6 R      858
     K00B19F HC2000 01 31.18126 08 32 50.53 +20 12 28.8          21.1 V      691
     K00B19F HC2000 01 31.20032 08 32 48.31 +20 12 32.6          21.4 V      691
     K00B19F HC2000 01 31.20801 08 32 47.36 +20 12 32.4          21.1 V      691
     K00B19F  C2000 02 03.22808 08 26 42.45 +20 20 03.4          21.1 R      858
     K00B19F FC2000 02 03.23987 08 26 40.93 +20 20 04.3          21.8 R      858
     K00B19F FC2000 02 03.25167 08 26 39.46 +20 20 06.2          21.3 R      858

Observer details:
691 Steward Observatory, Kitt Peak.  Observers J. V. Scotti, R. S. McMillan,
    A. E. Gleason.  0.9-m Spacewatch telescope.
858 Tebbutt Observatory, Edgewood.  Observer F. B. Zoltowski.  0.3-m f/3.3
    Schmidt-Cassegrain + CCD.

Orbital elements:
2000 BF19                                                            PHA 0.013
Epoch 2000 Jan. 17.0 TT = JDT 2451560.5                 Williams
M 235.70783              (2000.0)            P               Q
n   0.54225955     Peri.  321.61610     +0.09899796     +0.99182181
a   1.4893539      Node   313.90389     -0.88313663     +0.05026840
e   0.3825971      Incl.    6.41919     -0.45855109     +0.11731401
P   1.82           H   19.6           G   0.15
From 18 observations 2000 Jan. 28-Feb. 3.

Ephemeris:
2000 BF19                a,e,i = 1.49, 0.38, 6                   q = 0.9195
Date    TT    R. A. (2000) Decl.     Delta      r     Elong.  Phase     V
2000 01 27    08 41.15   +20 00.4    0.904    1.889   178.0     1.0    20.9
2000 02 01    08 31.19   +20 14.7    0.891    1.873   173.6     3.4    21.0
2000 02 06    08 21.16   +20 25.9    0.884    1.857   166.3     7.2    21.2
2000 02 11    08 11.44   +20 33.3    0.885    1.840   159.0    11.1    21.3
2000 02 16    08 02.41   +20 36.7    0.891    1.823   151.8    14.8    21.5
2000 02 21    07 54.37   +20 36.0    0.903    1.805   145.0    18.3    21.6
2000 02 26    07 47.53   +20 31.7    0.920    1.786   138.4    21.6    21.7
2000 03 02    07 42.02   +20 24.2    0.941    1.766   132.1    24.6    21.8
2000 03 07    07 37.94   +20 14.1    0.966    1.746   126.2    27.3    22.0

Gareth V. Williams           (C) Copyright 2000 MPC           M.P.E.C. 2000-C11

Read MPEC 2000-C10 Read MPEC 2000-C12


Our Web policy. Index to the CBAT/MPC/ICQ pages.


Valid HTML 4.01!